TUP9661 UUWW-URML

Flight info

Callsign TUP9661
Flight time 2h 25m
Altitude 35000
Route K0832F350 TOGMO M56 ABAGI B105 NIMTA DCT NATIT DCT MOLED N50 LIDUS G242 ZG DCT ITAKA DCT RIRAN
Aircraft B752/M-SDE2E3FGHIJ3J4J7RWXY/LB1

Departure

Time 2026-04-29 18:34
Airport Vnukovo International Airport (UUWW)

Arrival

Time 2026-04-29 20:59
Airport Makhachkala Uytash International Airport (URML)
Time Latitude Longitude Altitude Speed Heading
2026-04-29 18:27 55.60603 37.28080 700 ft 14 kts 136°
2026-04-29 18:28 55.60517 37.28089 700 ft 13 kts 226°
2026-04-29 18:28 55.60462 37.27970 700 ft 12 kts 225°
2026-04-29 18:28 55.60396 37.27871 700 ft 12 kts 202°
2026-04-29 18:28 55.60310 37.27847 700 ft 12 kts 186°
2026-04-29 18:29 55.60224 37.27838 700 ft 12 kts 175°
2026-04-29 18:29 55.60166 37.27864 700 ft 13 kts 155°
2026-04-29 18:29 55.60084 37.28021 700 ft 13 kts 111°
2026-04-29 18:29 55.60075 37.28183 700 ft 13 kts 84°
2026-04-29 18:30 55.60085 37.28348 700 ft 13 kts 79°
2026-04-29 18:30 55.60129 37.28496 700 ft 13 kts 46°
2026-04-29 18:30 55.60196 37.28617 700 ft 14 kts 47°
2026-04-29 18:30 55.60191 37.28751 700 ft 12 kts 140°
2026-04-29 18:31 55.60123 37.28848 700 ft 12 kts 149°
2026-04-29 18:31 55.60038 37.28896 700 ft 13 kts 166°
2026-04-29 18:31 55.59965 37.28927 700 ft 7 kts 165°
2026-04-29 18:31 55.59911 37.28951 700 ft 8 kts 165°
2026-04-29 18:32 55.59856 37.28975 700 ft 8 kts 167°
2026-04-29 18:32 55.59784 37.28938 700 ft 0 kts 247°
2026-04-29 18:33 55.59783 37.28936 700 ft 1 kts 247°
2026-04-29 18:33 55.59770 37.28879 700 ft 15 kts 248°
2026-04-29 18:33 55.59640 37.28300 701 ft 88 kts 248°
2026-04-29 18:33 55.59322 37.26878 708 ft 154 kts 250°
2026-04-29 18:34 55.58920 37.25048 1095 ft 164 kts 249°
2026-04-29 18:34 55.58565 37.23871 1502 ft 166 kts 241°
2026-04-29 18:34 55.57729 37.21613 2258 ft 171 kts 241°
2026-04-29 18:34 55.57040 37.19876 2792 ft 183 kts 236°
2026-04-29 18:35 55.56224 37.18018 3393 ft 198 kts 237°
2026-04-29 18:35 55.55406 37.16020 4056 ft 211 kts 235°
2026-04-29 18:35 55.54188 37.14381 4675 ft 233 kts 200°
2026-04-29 18:35 55.52563 37.13613 5333 ft 250 kts 195°
2026-04-29 18:36 55.50883 37.12849 6312 ft 253 kts 195°
2026-04-29 18:36 55.49131 37.12384 7040 ft 267 kts 175°
2026-04-29 18:36 55.47321 37.13382 7643 ft 283 kts 146°
2026-04-29 18:36 55.45863 37.15671 8455 ft 289 kts 130°
2026-04-29 18:37 55.44462 37.18234 9481 ft 292 kts 132°
2026-04-29 18:37 55.43056 37.20762 10390 ft 296 kts 132°
2026-04-29 18:37 55.41583 37.23427 10863 ft 315 kts 132°
2026-04-29 18:37 55.39993 37.26302 11332 ft 334 kts 132°
2026-04-29 18:38 55.38343 37.29281 11832 ft 350 kts 132°
2026-04-29 18:38 55.36644 37.32346 12703 ft 354 kts 133°
2026-04-29 18:38 55.34928 37.35439 13523 ft 360 kts 133°
2026-04-29 18:38 55.33160 37.38621 14129 ft 368 kts 133°
2026-04-29 18:39 55.31339 37.41896 14639 ft 374 kts 133°
2026-04-29 18:39 55.29553 37.45103 15698 ft 371 kts 133°
2026-04-29 18:39 55.27741 37.48354 16394 ft 377 kts 133°
2026-04-29 18:39 55.25920 37.51615 17180 ft 381 kts 133°
2026-04-29 18:40 55.24063 37.54936 17897 ft 385 kts 134°
2026-04-29 18:40 55.22325 37.58546 18593 ft 389 kts 121°
2026-04-29 18:40 55.21066 37.62707 19287 ft 391 kts 114°
2026-04-29 18:40 55.19913 37.66972 20021 ft 394 kts 115°
2026-04-29 18:41 55.16330 37.80070 22033 ft 405 kts 115°
2026-04-29 18:41 55.15115 37.84494 22747 ft 407 kts 115°
2026-04-29 18:42 55.13886 37.88962 23329 ft 412 kts 115°
2026-04-29 18:42 55.12638 37.93488 23942 ft 415 kts 115°
2026-04-29 18:42 55.11381 37.98037 24582 ft 417 kts 115°
2026-04-29 18:42 55.10121 38.02590 25109 ft 422 kts 115°
2026-04-29 18:43 55.08846 38.07188 25696 ft 424 kts 115°
2026-04-29 18:43 55.07565 38.11797 26293 ft 426 kts 115°
2026-04-29 18:43 55.06255 38.16502 26782 ft 430 kts 115°
2026-04-29 18:43 55.04954 38.21166 27140 ft 434 kts 115°
2026-04-29 18:44 55.03618 38.25943 27510 ft 437 kts 115°
2026-04-29 18:44 55.02301 38.30647 28128 ft 437 kts 115°
2026-04-29 18:44 55.00956 38.35437 28562 ft 441 kts 115°
2026-04-29 18:44 54.99613 38.40210 28990 ft 445 kts 115°
2026-04-29 18:45 54.98255 38.45026 29476 ft 447 kts 115°
2026-04-29 18:45 54.96873 38.49920 29873 ft 451 kts 115°
2026-04-29 18:45 54.95504 38.54755 30304 ft 454 kts 115°
2026-04-29 18:45 54.94088 38.59748 30645 ft 458 kts 115°
2026-04-29 18:46 54.92690 38.64664 30970 ft 462 kts 115°
2026-04-29 18:46 54.91251 38.69712 31323 ft 464 kts 115°
2026-04-29 18:46 54.89823 38.74715 31656 ft 466 kts 115°
2026-04-29 18:46 54.88387 38.79734 31925 ft 465 kts 115°
2026-04-29 18:47 54.86963 38.84701 32164 ft 465 kts 116°
2026-04-29 18:47 54.85509 38.89764 32389 ft 466 kts 116°
2026-04-29 18:47 54.84080 38.94727 32595 ft 467 kts 116°
2026-04-29 18:47 54.82629 38.99753 32804 ft 468 kts 116°
2026-04-29 18:48 54.81162 39.04827 33000 ft 469 kts 116°
2026-04-29 18:48 54.79710 39.09837 33057 ft 471 kts 116°
2026-04-29 18:48 54.76794 39.19862 33105 ft 457 kts 116°
2026-04-29 18:49 54.73964 39.29553 33127 ft 453 kts 116°
2026-04-29 18:49 54.71109 39.39292 33128 ft 456 kts 116°
2026-04-29 18:50 54.68256 39.48982 33116 ft 454 kts 116°
2026-04-29 18:50 54.65383 39.58698 33115 ft 456 kts 117°
2026-04-29 18:51 54.62492 39.68438 33126 ft 455 kts 117°
2026-04-29 18:51 54.59605 39.78123 33103 ft 454 kts 117°
2026-04-29 18:52 54.56719 39.87765 33111 ft 455 kts 117°
2026-04-29 18:52 54.53828 39.97387 33107 ft 454 kts 117°
2026-04-29 18:53 54.50918 40.07033 33115 ft 453 kts 118°
2026-04-29 18:53 54.47993 40.16687 33102 ft 460 kts 118°
2026-04-29 18:54 54.44996 40.26536 33099 ft 472 kts 118°
2026-04-29 18:54 54.41981 40.36409 33106 ft 467 kts 118°
2026-04-29 18:55 54.38979 40.46196 33107 ft 464 kts 118°
2026-04-29 18:55 54.35960 40.55997 33108 ft 466 kts 118°
2026-04-29 18:56 54.32940 40.65762 33102 ft 464 kts 119°
2026-04-29 18:56 54.29921 40.75486 33106 ft 465 kts 119°
2026-04-29 18:57 54.26893 40.85198 33100 ft 464 kts 119°
2026-04-29 18:57 54.23846 40.94935 33100 ft 463 kts 119°
2026-04-29 18:58 54.20821 41.04557 33099 ft 464 kts 119°
2026-04-29 18:58 54.17766 41.14239 33096 ft 466 kts 120°
2026-04-29 18:59 54.14691 41.23943 33104 ft 466 kts 120°
2026-04-29 18:59 54.11610 41.33630 33090 ft 466 kts 120°
2026-04-29 19:00 54.08515 41.43320 33107 ft 467 kts 120°
2026-04-29 19:00 54.05415 41.52990 33099 ft 466 kts 120°
2026-04-29 19:01 54.02327 41.62580 33100 ft 467 kts 120°
2026-04-29 19:01 53.99202 41.72250 33113 ft 468 kts 121°
2026-04-29 19:02 53.96589 41.80303 33105 ft 467 kts 121°
2026-04-29 19:02 53.92917 41.91577 33106 ft 468 kts 121°
2026-04-29 19:03 53.89768 42.01202 33106 ft 469 kts 121°
2026-04-29 19:03 53.86599 42.10852 33108 ft 469 kts 121°
2026-04-29 19:04 53.83444 42.20423 33111 ft 469 kts 122°
2026-04-29 19:04 53.79544 42.29066 33125 ft 461 kts 139°
2026-04-29 19:05 53.74339 42.35096 33126 ft 455 kts 156°
2026-04-29 19:05 53.68711 42.39999 33116 ft 454 kts 155°
2026-04-29 19:06 53.63122 42.44877 33118 ft 453 kts 155°
2026-04-29 19:07 53.54724 42.52175 33117 ft 454 kts 156°
2026-04-29 19:07 53.49118 42.57029 33125 ft 452 kts 156°
2026-04-29 19:08 53.43558 42.61827 33120 ft 452 kts 156°
2026-04-29 19:08 53.37956 42.66649 33119 ft 450 kts 157°
2026-04-29 19:09 53.32423 42.71396 33124 ft 448 kts 157°
2026-04-29 19:09 53.26894 42.76125 33125 ft 450 kts 157°
2026-04-29 19:10 53.21338 42.80865 33128 ft 448 kts 158°
2026-04-29 19:10 53.16726 42.84787 33127 ft 446 kts 158°
2026-04-29 19:11 53.10280 42.90255 33127 ft 446 kts 158°
2026-04-29 19:11 53.04793 42.94896 33126 ft 443 kts 158°
2026-04-29 19:12 52.99301 42.99524 33123 ft 445 kts 158°
2026-04-29 19:12 52.93773 43.04172 33125 ft 445 kts 158°
2026-04-29 19:13 52.88267 43.08788 33135 ft 446 kts 158°
2026-04-29 19:13 52.82759 43.13392 33135 ft 443 kts 158°
2026-04-29 19:14 52.77293 43.17947 33142 ft 442 kts 158°
2026-04-29 19:14 52.71803 43.22510 33145 ft 443 kts 159°
2026-04-29 19:15 52.66324 43.27052 33152 ft 443 kts 159°
2026-04-29 19:15 52.60855 43.31573 33145 ft 439 kts 159°
2026-04-29 19:16 52.55377 43.36085 33143 ft 441 kts 159°
2026-04-29 19:16 52.49913 43.40576 33142 ft 440 kts 159°
2026-04-29 19:17 52.44429 43.45070 33166 ft 439 kts 159°
2026-04-29 19:17 52.38966 43.49535 33142 ft 440 kts 159°
2026-04-29 19:18 52.33514 43.53978 33163 ft 440 kts 159°
2026-04-29 19:18 52.28067 43.58406 33165 ft 438 kts 159°
2026-04-29 19:19 52.22623 43.62817 33149 ft 437 kts 159°
2026-04-29 19:19 52.17191 43.67209 33134 ft 437 kts 160°
2026-04-29 19:20 52.11740 43.71602 33156 ft 436 kts 160°
2026-04-29 19:20 52.06330 43.75951 33150 ft 434 kts 160°
2026-04-29 19:21 52.00912 43.80292 33175 ft 438 kts 160°
2026-04-29 19:21 51.98189 43.82470 33457 ft 438 kts 160°
2026-04-29 19:21 51.95484 43.84632 33836 ft 435 kts 159°
2026-04-29 19:21 51.92771 43.86795 34074 ft 438 kts 159°
2026-04-29 19:22 51.90058 43.88963 34135 ft 436 kts 159°
2026-04-29 19:22 51.84615 43.93298 34158 ft 436 kts 159°
2026-04-29 19:23 51.79183 43.97609 34155 ft 434 kts 159°
2026-04-29 19:23 51.73749 44.01907 34153 ft 436 kts 159°
2026-04-29 19:24 51.68347 44.06169 34154 ft 434 kts 159°
2026-04-29 19:24 51.62929 44.10431 34157 ft 435 kts 159°
2026-04-29 19:25 51.57496 44.14693 34155 ft 435 kts 159°
2026-04-29 19:25 51.52086 44.18926 34163 ft 437 kts 160°
2026-04-29 19:26 51.46639 44.23177 34159 ft 435 kts 160°
2026-04-29 19:26 51.41225 44.27390 34159 ft 437 kts 160°
2026-04-29 19:27 51.35757 44.31634 34161 ft 437 kts 160°
2026-04-29 19:27 51.30315 44.35848 34155 ft 435 kts 160°
2026-04-29 19:28 51.24857 44.40062 34157 ft 435 kts 160°
2026-04-29 19:28 51.19436 44.44159 34157 ft 431 kts 164°
2026-04-29 19:29 51.13697 44.46117 34166 ft 418 kts 183°
2026-04-29 19:29 51.07930 44.45934 34164 ft 416 kts 186°
2026-04-29 19:30 51.02182 44.45540 34160 ft 415 kts 187°
2026-04-29 19:30 50.96438 44.45062 34162 ft 414 kts 187°
2026-04-29 19:31 50.90703 44.44548 34162 ft 418 kts 187°
2026-04-29 19:31 50.84841 44.44008 34168 ft 420 kts 187°
2026-04-29 19:32 50.79006 44.43469 34166 ft 421 kts 187°
2026-04-29 19:32 50.73188 44.42931 34169 ft 420 kts 187°
2026-04-29 19:33 50.67364 44.42394 34164 ft 417 kts 187°
2026-04-29 19:33 50.61597 44.41862 34165 ft 419 kts 187°
2026-04-29 19:34 50.55795 44.41329 34175 ft 417 kts 187°
2026-04-29 19:34 50.49976 44.40795 34169 ft 418 kts 187°
2026-04-29 19:35 50.44177 44.40264 34178 ft 419 kts 187°
2026-04-29 19:35 50.38379 44.39735 34176 ft 417 kts 187°
2026-04-29 19:36 50.32586 44.39207 34175 ft 417 kts 187°
2026-04-29 19:36 50.26785 44.38679 34176 ft 417 kts 187°
2026-04-29 19:37 50.21005 44.38156 34177 ft 417 kts 187°
2026-04-29 19:37 50.15263 44.37638 34174 ft 415 kts 187°
2026-04-29 19:38 50.09506 44.37118 34172 ft 415 kts 187°
2026-04-29 19:38 50.03712 44.36597 34167 ft 415 kts 187°
2026-04-29 19:39 49.97964 44.36081 34180 ft 416 kts 187°
2026-04-29 19:39 49.92213 44.35566 34184 ft 414 kts 187°
2026-04-29 19:40 49.86483 44.35054 34184 ft 414 kts 187°
2026-04-29 19:40 49.80735 44.34542 34203 ft 417 kts 187°
2026-04-29 19:41 49.74954 44.34028 34185 ft 415 kts 187°
2026-04-29 19:41 49.69152 44.33513 34197 ft 417 kts 187°
2026-04-29 19:42 49.63411 44.33006 34200 ft 415 kts 187°
2026-04-29 19:42 49.57656 44.32977 34198 ft 420 kts 176°
2026-04-29 19:43 49.51994 44.35659 34206 ft 432 kts 163°
2026-04-29 19:43 49.46453 44.39097 34193 ft 431 kts 163°
2026-04-29 19:44 49.40906 44.42582 34197 ft 431 kts 163°
2026-04-29 19:44 49.35392 44.46061 34184 ft 431 kts 163°
2026-04-29 19:45 49.29836 44.49567 34186 ft 432 kts 163°
2026-04-29 19:45 49.24291 44.53063 34190 ft 431 kts 163°
2026-04-29 19:46 49.18750 44.56549 34194 ft 431 kts 163°
2026-04-29 19:46 49.13216 44.60023 34190 ft 431 kts 163°
2026-04-29 19:47 49.07721 44.63464 34189 ft 429 kts 163°
2026-04-29 19:47 49.02201 44.66911 34190 ft 430 kts 164°
2026-04-29 19:48 48.96654 44.70369 34182 ft 427 kts 164°
2026-04-29 19:48 48.91180 44.73771 34184 ft 430 kts 164°
2026-04-29 19:49 48.85670 44.77210 34191 ft 429 kts 162°
2026-04-29 19:49 48.80568 44.82219 34203 ft 444 kts 149°
2026-04-29 19:50 48.75703 44.87938 34192 ft 443 kts 149°
2026-04-29 19:50 48.70870 44.93635 34189 ft 443 kts 149°
2026-04-29 19:51 48.66029 44.99342 34189 ft 443 kts 149°
2026-04-29 19:51 48.61163 45.05071 34192 ft 444 kts 149°
2026-04-29 19:52 48.56298 45.10786 34184 ft 443 kts 149°
2026-04-29 19:52 48.51466 45.16448 34184 ft 442 kts 149°
2026-04-29 19:53 48.46619 45.22115 34176 ft 442 kts 149°
2026-04-29 19:53 48.41770 45.27760 34182 ft 440 kts 150°
2026-04-29 19:54 48.33878 45.34200 34179 ft 430 kts 160°
2026-04-29 19:54 48.28540 45.38155 34176 ft 429 kts 160°
2026-04-29 19:55 48.23193 45.42085 34174 ft 430 kts 160°
2026-04-29 19:55 48.17796 45.46038 34177 ft 431 kts 160°
2026-04-29 19:56 48.12440 45.49947 34172 ft 429 kts 160°
2026-04-29 19:56 48.07065 45.53861 34174 ft 431 kts 160°
2026-04-29 19:57 48.02621 45.57090 34170 ft 429 kts 160°
2026-04-29 19:57 47.96340 45.61641 34165 ft 430 kts 160°
2026-04-29 19:58 47.90966 45.65526 34169 ft 429 kts 161°
2026-04-29 19:58 47.85578 45.69411 34174 ft 428 kts 161°
2026-04-29 19:59 47.80226 45.73263 34167 ft 429 kts 161°
2026-04-29 19:59 47.74894 45.77092 34170 ft 427 kts 161°
2026-04-29 20:00 47.69539 45.80927 34168 ft 429 kts 161°
2026-04-29 20:00 47.64168 45.84765 34165 ft 428 kts 161°
2026-04-29 20:01 47.58803 45.88590 34164 ft 430 kts 161°
2026-04-29 20:01 47.53426 45.92415 34162 ft 430 kts 161°
2026-04-29 20:02 47.48061 45.96222 34158 ft 429 kts 161°
2026-04-29 20:02 47.43582 45.99395 34162 ft 431 kts 160°
2026-04-29 20:03 47.37298 46.03839 34162 ft 430 kts 161°
2026-04-29 20:03 47.31889 46.07668 34156 ft 430 kts 160°
2026-04-29 20:04 47.26514 46.11463 34152 ft 431 kts 160°
2026-04-29 20:04 47.21129 46.15258 34153 ft 431 kts 160°
2026-04-29 20:05 47.15723 46.19058 34152 ft 431 kts 160°
2026-04-29 20:05 47.10360 46.22821 34150 ft 430 kts 160°
2026-04-29 20:06 47.05253 46.27620 34151 ft 444 kts 143°
2026-04-29 20:06 47.01357 46.34792 34161 ft 458 kts 129°
2026-04-29 20:07 46.97951 46.42583 34153 ft 458 kts 129°
2026-04-29 20:07 46.94536 46.50399 34153 ft 456 kts 129°
2026-04-29 20:08 46.91702 46.56878 34155 ft 457 kts 129°
2026-04-29 20:08 46.87705 46.65998 34161 ft 456 kts 129°
2026-04-29 20:09 46.84306 46.73734 34163 ft 454 kts 129°
2026-04-29 20:09 46.80891 46.81483 34155 ft 454 kts 129°
2026-04-29 20:10 46.77481 46.89199 34162 ft 456 kts 129°
2026-04-29 20:10 46.74050 46.96942 34156 ft 454 kts 129°
2026-04-29 20:11 46.70621 47.04660 34156 ft 454 kts 129°
2026-04-29 20:11 46.67234 47.12389 34156 ft 455 kts 128°
2026-04-29 20:12 46.63863 47.20132 34154 ft 454 kts 128°
2026-04-29 20:12 46.60491 47.27853 34156 ft 454 kts 128°
2026-04-29 20:13 46.57687 47.34257 34156 ft 454 kts 129°
2026-04-29 20:13 46.53717 47.43299 34155 ft 455 kts 128°
2026-04-29 20:14 46.50327 47.50995 34154 ft 455 kts 128°
2026-04-29 20:14 46.46938 47.58669 34156 ft 455 kts 128°
2026-04-29 20:15 46.43509 47.66412 34157 ft 455 kts 129°
2026-04-29 20:15 46.40115 47.74057 34154 ft 453 kts 129°
2026-04-29 20:16 46.36692 47.81743 34157 ft 455 kts 129°
2026-04-29 20:16 46.33286 47.89370 34157 ft 452 kts 129°
2026-04-29 20:17 46.29877 47.97010 34160 ft 455 kts 127°
2026-04-29 20:17 46.27471 48.05515 34169 ft 470 kts 109°
2026-04-29 20:18 46.26034 48.14771 34150 ft 470 kts 108°
2026-04-29 20:18 46.24613 48.23965 34149 ft 471 kts 108°
2026-04-29 20:19 46.23196 48.33143 34145 ft 469 kts 108°
2026-04-29 20:19 46.21780 48.42270 34143 ft 470 kts 108°
2026-04-29 20:20 46.19449 48.50894 34141 ft 454 kts 126°
2026-04-29 20:20 46.15463 48.57687 34140 ft 442 kts 144°
2026-04-29 20:21 46.10260 48.62180 34131 ft 433 kts 160°
2026-04-29 20:21 46.04695 48.65268 34125 ft 429 kts 165°
2026-04-29 20:22 45.99023 48.67896 34127 ft 429 kts 166°
2026-04-29 20:22 45.93331 48.70326 34122 ft 428 kts 167°
2026-04-29 20:23 45.87599 48.72681 34119 ft 429 kts 167°
2026-04-29 20:23 45.81855 48.75001 34120 ft 430 kts 168°
2026-04-29 20:24 45.76140 48.77290 34121 ft 429 kts 168°
2026-04-29 20:24 45.70364 48.79592 34125 ft 430 kts 168°
2026-04-29 20:25 45.64632 48.81870 34113 ft 430 kts 167°
2026-04-29 20:25 45.58854 48.84161 34113 ft 431 kts 167°
2026-04-29 20:26 45.53095 48.86438 34116 ft 432 kts 167°
2026-04-29 20:26 45.47285 48.88731 34114 ft 432 kts 167°
2026-04-29 20:27 45.42478 48.90625 34110 ft 432 kts 167°
2026-04-29 20:27 45.35723 48.93280 34113 ft 433 kts 167°
2026-04-29 20:28 45.29921 48.95555 34111 ft 433 kts 167°
2026-04-29 20:28 45.24136 48.97818 34111 ft 436 kts 167°
2026-04-29 20:29 45.18310 49.00093 34110 ft 434 kts 167°
2026-04-29 20:29 45.12508 49.02353 34107 ft 435 kts 167°
2026-04-29 20:30 45.06635 49.04636 34108 ft 436 kts 167°
2026-04-29 20:30 45.00820 49.06893 34109 ft 435 kts 167°
2026-04-29 20:31 44.94996 49.09148 34109 ft 437 kts 167°
2026-04-29 20:31 44.89135 49.11412 34112 ft 437 kts 167°
2026-04-29 20:32 44.83270 49.13674 34116 ft 436 kts 167°
2026-04-29 20:32 44.78426 49.15538 34116 ft 435 kts 167°
2026-04-29 20:33 44.71595 49.18160 34115 ft 437 kts 167°
2026-04-29 20:33 44.65758 49.20396 34115 ft 438 kts 167°
2026-04-29 20:34 44.59876 49.22646 34114 ft 437 kts 167°
2026-04-29 20:34 44.53994 49.24889 34114 ft 438 kts 167°
2026-04-29 20:35 44.48103 49.27132 34113 ft 438 kts 167°
2026-04-29 20:35 44.42159 49.28803 34121 ft 434 kts 179°
2026-04-29 20:36 44.36224 49.27785 34120 ft 430 kts 198°
2026-04-29 20:36 44.30920 49.24028 34120 ft 431 kts 217°
2026-04-29 20:37 44.26668 49.18167 34114 ft 432 kts 227°
2026-04-29 20:37 44.22678 49.11980 34111 ft 431 kts 226°
2026-04-29 20:38 44.18649 49.05762 34111 ft 431 kts 227°
2026-04-29 20:38 44.14633 48.99582 34112 ft 431 kts 227°
2026-04-29 20:39 44.10622 48.93423 34110 ft 431 kts 227°
2026-04-29 20:39 44.06563 48.87205 33440 ft 440 kts 227°
2026-04-29 20:40 44.04522 48.84081 32854 ft 437 kts 227°
2026-04-29 20:40 44.02487 48.80972 32200 ft 436 kts 227°
2026-04-29 20:40 44.00454 48.77871 31512 ft 436 kts 227°
2026-04-29 20:40 43.98407 48.74749 30831 ft 438 kts 227°
2026-04-29 20:41 43.96354 48.71623 30102 ft 437 kts 227°
2026-04-29 20:41 43.94324 48.68535 29341 ft 432 kts 227°
2026-04-29 20:41 43.92343 48.65524 28609 ft 427 kts 227°
2026-04-29 20:41 43.90358 48.62512 27883 ft 422 kts 227°
2026-04-29 20:42 43.88372 48.59500 27170 ft 419 kts 228°
2026-04-29 20:42 43.86426 48.56553 26472 ft 416 kts 228°
2026-04-29 20:42 43.84483 48.53613 25778 ft 412 kts 228°
2026-04-29 20:42 43.82549 48.50689 25095 ft 408 kts 228°
2026-04-29 20:43 43.80655 48.47829 24444 ft 405 kts 228°
2026-04-29 20:43 43.78753 48.44960 23800 ft 402 kts 228°
2026-04-29 20:43 43.76987 48.42298 23218 ft 401 kts 228°
2026-04-29 20:43 43.75100 48.39457 22602 ft 399 kts 228°
2026-04-29 20:44 43.73251 48.36677 21992 ft 396 kts 228°
2026-04-29 20:44 43.71391 48.33881 21384 ft 394 kts 227°
2026-04-29 20:44 43.69540 48.31103 20782 ft 391 kts 228°
2026-04-29 20:44 43.67710 48.28359 20185 ft 389 kts 228°
2026-04-29 20:45 43.65884 48.25623 19591 ft 387 kts 228°
2026-04-29 20:45 43.64086 48.22932 19005 ft 385 kts 228°
2026-04-29 20:45 43.62276 48.20226 18415 ft 383 kts 228°
2026-04-29 20:45 43.60487 48.17553 17839 ft 381 kts 228°
2026-04-29 20:46 43.58684 48.14861 17259 ft 379 kts 228°
2026-04-29 20:46 43.56916 48.12225 16694 ft 377 kts 227°
2026-04-29 20:46 43.55146 48.09589 16133 ft 376 kts 227°
2026-04-29 20:46 43.53383 48.06965 15571 ft 373 kts 227°
2026-04-29 20:47 43.51635 48.04366 15017 ft 371 kts 227°
2026-04-29 20:47 43.49866 48.01738 14461 ft 370 kts 227°
2026-04-29 20:47 43.48143 47.99181 13923 ft 368 kts 227°
2026-04-29 20:47 43.46410 47.96611 13379 ft 365 kts 227°
2026-04-29 20:48 43.44679 47.94046 12834 ft 363 kts 227°
2026-04-29 20:48 43.42969 47.91517 12313 ft 362 kts 227°
2026-04-29 20:48 43.41269 47.89004 11796 ft 357 kts 227°
2026-04-29 20:48 43.39599 47.86532 11233 ft 352 kts 227°
2026-04-29 20:49 43.37954 47.84109 10739 ft 345 kts 227°
2026-04-29 20:49 43.36328 47.81705 10275 ft 339 kts 227°
2026-04-29 20:49 43.34647 47.79469 9794 ft 334 kts 217°
2026-04-29 20:49 43.32796 47.77644 9319 ft 329 kts 216°
2026-04-29 20:50 43.30948 47.75813 8839 ft 324 kts 217°
2026-04-29 20:50 43.29158 47.74038 8423 ft 319 kts 216°
2026-04-29 20:50 43.27356 47.72255 8004 ft 313 kts 216°
2026-04-29 20:50 43.25610 47.70526 7603 ft 307 kts 217°
2026-04-29 20:51 43.23904 47.68840 7254 ft 301 kts 216°
2026-04-29 20:51 43.22219 47.67175 6944 ft 293 kts 217°
2026-04-29 20:51 43.20589 47.65565 6663 ft 286 kts 217°
2026-04-29 20:51 43.19000 47.63998 6439 ft 274 kts 217°
2026-04-29 20:52 43.17987 47.63000 6283 ft 271 kts 217°
2026-04-29 20:52 43.15906 47.60947 6043 ft 278 kts 217°
2026-04-29 20:52 43.14342 47.59405 5791 ft 277 kts 217°
2026-04-29 20:52 43.12780 47.57869 5523 ft 275 kts 217°
2026-04-29 20:53 43.11236 47.56352 5275 ft 269 kts 217°
2026-04-29 20:53 43.09741 47.54882 5074 ft 259 kts 217°
2026-04-29 20:53 43.08283 47.53449 4855 ft 261 kts 217°
2026-04-29 20:53 43.06795 47.51989 4616 ft 262 kts 217°
2026-04-29 20:54 43.03837 47.49201 4113 ft 255 kts 205°
2026-04-29 20:54 43.02132 47.48778 3909 ft 248 kts 173°
2026-04-29 20:54 43.00583 47.49511 3903 ft 230 kts 151°
2026-04-29 20:55 42.99158 47.50557 3881 ft 238 kts 151°
2026-04-29 20:55 42.97687 47.51657 3603 ft 240 kts 148°
2026-04-29 20:55 42.96270 47.52865 3291 ft 240 kts 147°
2026-04-29 20:55 42.94856 47.54088 2970 ft 241 kts 147°
2026-04-29 20:56 42.93450 47.55280 2655 ft 228 kts 148°
2026-04-29 20:56 42.92179 47.56349 2364 ft 197 kts 148°
2026-04-29 20:56 42.91074 47.57285 2101 ft 182 kts 148°
2026-04-29 20:56 42.90058 47.58145 1889 ft 163 kts 148°
2026-04-29 20:57 42.89138 47.58922 1643 ft 147 kts 147°
2026-04-29 20:57 42.88471 47.59486 1458 ft 137 kts 147°
2026-04-29 20:57 42.87694 47.60145 1257 ft 127 kts 147°
2026-04-29 20:57 42.86925 47.60793 1113 ft 131 kts 148°
2026-04-29 20:58 42.86144 47.61445 971 ft 134 kts 147°
2026-04-29 20:58 42.85350 47.62148 748 ft 135 kts 148°
2026-04-29 20:58 42.84563 47.62816 543 ft 132 kts 148°
2026-04-29 20:58 42.83791 47.63470 312 ft 132 kts 146°
2026-04-29 20:59 42.83025 47.64113 136 ft 127 kts 147°
2026-04-29 20:59 42.82289 47.64728 26 ft 114 kts 147°
2026-04-29 20:59 42.81757 47.65183 26 ft 66 kts 148°
2026-04-29 20:59 42.81464 47.65432 25 ft 37 kts 148°
2026-04-29 21:00 42.81238 47.65621 25 ft 31 kts 150°
2026-04-29 21:00 42.81156 47.65671 25 ft 7 kts 159°
2026-04-29 21:00 42.81150 47.65698 25 ft 4 kts 39°
2026-04-29 21:00 42.81203 47.65656 25 ft 16 kts 321°
2026-04-29 21:01 42.81317 47.65556 25 ft 22 kts 328°
2026-04-29 21:01 42.81458 47.65436 25 ft 24 kts 328°
2026-04-29 21:01 42.81579 47.65334 25 ft 11 kts 329°
2026-04-29 21:01 42.81645 47.65318 25 ft 10 kts 27°
2026-04-29 21:02 42.81677 47.65375 25 ft 6 kts 58°
2026-04-29 21:02 42.81704 47.65434 25 ft 8 kts 58°
2026-04-29 21:02 42.81737 47.65504 25 ft 8 kts 58°
2026-04-29 21:02 42.81764 47.65548 25 ft 4 kts 41°
2026-04-29 21:03 42.81779 47.65564 25 ft 5 kts 40°
2026-04-29 21:03 42.81793 47.65580 25 ft 0 kts 40°
2026-04-29 21:03 42.81794 47.65581 25 ft 1 kts 38°
2026-04-29 21:03 42.81832 47.65600 25 ft 7 kts 15°
2026-04-29 21:04 42.81877 47.65624 25 ft 6 kts 34°
2026-04-29 21:04 42.81893 47.65640 25 ft 1 kts 38°
2026-04-29 21:04 42.81893 47.65641 25 ft 0 kts 38°